Wind_Speed
16 16 17 17 16 17 17 19 18 18 17 18 16 17 17 20 18 16 14 10 7 5 3 1 2 3 1 3 6 2 4 15 19 17 17 12 12 9 5 7 7 2 6 14 6 6 7
16 16 17 18 15 17 17 18 19 20 19 17 19 17 15 16 16 14 10 8 5 4 2 2 1 0 2 1 3 3 5 7 9 14 13 16 10 12 8 6 7 8 3 14 8 7 2
15 16 17 18 19 15 17 18 18 17 20 21 17 18 15 13 14 11 12 6 3 2 2 4 3 1 2 3 3 3 5 8 8 15 17 18 9 15 4 4 13 8 7 7 8 7 2
16 16 17 18 19 19 16 18 18 19 17 20 21 18 17 13 9 9 8 8 4 1 0 1 2 4 1 3 3 4 2 7 12 11 21 18 18 21 2 3 8 4 5 5 8 18 6
17 16 17 19 19 20 18 17 19 20 19 19 20 19 18 13 10 7 9 6 4 2 1 1 4 4 2 3 4 6 2 6 12 15 22 14 21 6 4 6 4 5 7 6 8 17 8
18 17 17 19 20 20 19 18 19 19 21 21 19 20 17 13 10 5 8 3 2 2 1 1 2 3 3 4 9 2 4 2 2 9 17 15 12 4 3 5 15 11 5 3 6 12 8
18 18 17 19 21 21 21 17 19 20 21 20 20 20 18 13 8 4 5 2 2 1 4 1 2 1 4 8 5 3 6 1 5 8 8 18 2 19 18 4 1 8 6 7 3 10 15
19 18 17 19 21 22 23 20 21 19 21 21 20 20 19 12 5 3 2 3 4 2 1 2 7 8 6 6 1 4 6 4 4 10 7 5 3 10 8 5 4 9 6 4 2 10 8
20 19 18 18 21 22 23 23 21 20 21 22 21 20 18 7 3 3 1 3 4 3 2 2 2 2 2 3 2 3 6 8 1 5 5 5 2 10 7 4 5 3 8 5 5 4 3
20 19 19 18 20 22 24 23 23 22 23 22 19 19 13 2 3 3 2 3 2 2 2 2 1 1 1 1 1 2 5 2 4 3 4 2 6 14 11 5 4 4 5 6 8 5 4
20 19 19 19 20 22 24 24 23 22 23 22 19 18 8 3 3 2 1 4 2 1 2 2 2 0 1 1 3 1 3 2 6 4 2 3 15 9 12 8 3 3 5 5 3 4 2
18 18 18 19 20 22 23 24 24 23 22 21 18 14 2 1 6 3 3 3 2 5 2 2 2 4 3 1 2 4 2 3 5 4 1 3 12 1 4 3 3 6 6 7 5 3 1
16 17 17 18 20 23 23 24 23 22 21 20 15 4 3 3 4 5 5 2 4 5 1 1 2 4 3 4 4 4 2 2 3 3 3 7 4 2 4 7 4 5 6 2 2 0 4
16 16 16 17 19 23 22 23 21 21 21 19 7 4 5 4 5 7 4 3 7 4 3 1 0 8 3 8 3 6 5 3 3 5 4 4 6 2 3 4 6 3 3 4 5 4 3
15 15 15 16 18 22 22 21 22 20 19 15 2 5 5 3 4 5 3 4 6 4 2 2 0 2 2 1 3 5 7 6 6 9 1 4 4 2 5 2 2 4 3 3 6 3 3
15 15 15 16 18 20 20 21 21 19 17 10 7 5 4 3 4 3 3 2 2 3 2 2 1 4 2 3 3 3 2 2 2 2 1 1 6 3 3 2 5 3 5 2 3 3 4
14 14 14 14 17 18 18 19 19 18 15 7 5 3 2 3 3 1 2 4 4 6 4 2 2 2 1 4 3 3 2 1 3 3 6 2 3 3 3 3 5 2 2 2 3 4 4
14 14 12 13 15 16 16 17 18 18 14 5 2 1 1 1 2 1 1 3 1 1 3 2 1 0 2 1 4 6 3 2 4 9 4 2 4 3 2 3 3 3 5 5 4 4 1
14 13 11 11 14 14 14 15 17 17 13 6 1 2 1 1 1 2 3 1 1 1 1 1 1 3 2 2 3 1 1 2 7 7 7 6 2 4 1 1 2 4 4 3 4 3 6
15 12 9 10 12 12 12 13 16 15 11 5 1 1 1 1 3 2 3 3 3 1 3 2 2 2 3 3 5 2 2 3 4 2 3 5 3 5 7 5 3 6 8 10 6 6 4
14 11 8 9 10 10 10 12 15 14 10 4 4 1 1 2 3 3 1 4 4 4 3 5 3 4 2 2 2 2 2 1 3 4 3 3 3 3 3 2 3 3 10 14 20 19 10
14 12 8 7 8 8 8 10 12 13 7 10 3 2 1 1 5 2 3 3 4 5 4 4 4 5 4 3 2 3 4 2 2 2 2 2 2 3 2 3 5 5 8 13 18 17 17
15 12 8 6 4 5 7 9 11 13 8 7 5 3 1 3 3 1 2 2 2 4 5 7 3 2 4 2 4 5 3 1 2 6 3 2 4 3 3 3 3 6 9 13 10 13 16
16 12 9 4 1 3 7 7 11 13 14 14 10 3 3 1 2 2 2 3 4 3 2 8 4 1 1 2 2 3 9 7 4 4 3 4 3 2 2 2 1 5 2 4 11 6 14
17 14 10 6 2 3 5 5 7 10 11 12 13 6 3 2 1 1 4 4 8 6 4 4 4 4 5 2 3 4 4 3 1 2 2 2 4 2 2 3 7 1 1 5 5 4 9
19 15 12 6 4 3 3 4 4 7 9 10 9 8 3 5 1 2 2 3 3 4 6 4 4 6 3 2 2 3 3 3 2 0 3 4 4 3 1 1 4 4 3 3 3 4 3
21 17 12 7 6 3 3 3 3 5 8 10 8 6 2 3 2 1 2 1 2 1 2 4 9 5 3 1 2 2 3 3 3 4 4 2 2 4 3 3 7 6 5 4 3 4 10
23 18 13 9 7 4 2 3 3 5 7 9 9 7 3 1 1 2 1 1 1 2 1 7 4 0 3 2 2 3 3 4 2 3 5 6 5 3 3 3 6 4 3 3 4 6 8
24 19 14 9 6 4 3 3 4 6 5 7 8 8 3 0 2 4 7 7 7 7 4 3 2 3 3 2 1 1 2 2 3 3 1 3 6 4 7 5 5 5 9 5 7 7 5
Wind_Direction
335 342 346 348 347 350 356 348 350 350 350 342 339 337 341 340 346 349 5 16 22 15 27 341 290 291 183 213 254 246 42 165 196 204 211 217 182 182 181 172 147 211 191 207 203 170 96
331 340 343 346 347 348 349 348 345 347 351 347 341 335 336 339 345 352 355 357 16 44 61 74 37 219 192 237 331 312 238 175 176 208 224 212 192 176 206 178 174 181 186 172 163 215 141
327 334 339 345 344 343 343 349 347 341 342 340 342 333 334 334 337 349 1 350 10 48 59 61 49 20 286 277 318 304 255 214 224 200 221 220 180 188 177 134 187 138 99 99 148 168 240
327 329 334 343 342 342 343 345 341 344 341 336 336 335 334 331 322 332 341 342 307 328 34 88 8 345 283 2 32 283 299 204 235 225 219 211 196 194 187 155 158 120 102 128 165 147 153
327 327 331 338 338 341 341 338 339 346 340 336 332 337 334 329 317 325 319 316 306 268 236 265 332 340 51 67 17 358 253 230 211 201 198 212 205 183 166 124 90 212 169 161 165 162 141
326 325 328 334 334 338 339 338 342 341 338 335 336 332 336 324 316 304 314 304 264 234 203 284 297 346 37 0 340 324 208 310 277 174 172 194 189 157 138 174 190 178 108 191 135 177 155
323 324 325 329 331 335 338 336 329 337 337 335 332 331 333 325 307 278 304 182 155 118 231 248 310 299 320 321 333 120 176 114 319 217 162 213 147 188 187 124 107 117 114 137 186 180 185
318 320 323 326 328 334 337 336 338 337 335 334 332 328 329 323 280 259 281 220 204 176 133 259 267 266 277 302 351 147 167 67 270 141 358 178 192 199 127 205 107 121 131 153 80 166 171
314 316 319 322 326 331 335 338 335 337 334 334 331 326 332 320 240 210 215 214 168 147 96 276 251 215 209 263 331 152 171 139 206 106 348 184 258 166 150 170 125 92 140 160 143 112 8
311 313 315 320 324 328 332 337 337 338 336 335 328 327 334 347 175 205 214 199 191 130 70 264 208 282 130 201 348 131 158 118 49 99 322 30 167 163 161 136 126 102 155 138 142 132 184
306 310 312 317 322 327 331 336 340 337 341 338 331 330 339 177 159 110 32 152 97 120 77 173 161 190 273 46 130 185 197 53 115 149 245 76 159 171 162 157 139 149 143 119 95 92 117
303 306 309 314 320 325 330 334 340 344 343 341 333 329 21 141 168 157 122 160 134 45 350 159 137 148 134 16 49 139 277 94 127 87 40 332 164 28 141 91 85 147 88 53 50 73 298
298 301 305 311 319 323 330 332 341 344 345 343 337 347 81 118 148 157 148 213 32 67 208 291 179 176 161 175 135 163 187 70 84 96 168 127 142 114 84 92 16 75 78 70 61 244 223
291 295 300 308 318 322 332 334 344 346 346 345 343 104 87 109 122 140 178 46 67 230 253 154 26 158 198 173 106 109 152 160 179 204 135 151 137 65 2 122 157 127 145 151 173 189 234
283 288 297 305 317 324 330 339 348 349 348 349 131 119 80 104 143 154 181 52 190 206 198 98 27 84 107 96 114 183 185 178 205 197 124 125 77 117 66 57 75 173 184 165 104 6 61
275 282 293 305 320 325 337 345 349 350 352 358 157 133 83 89 158 167 86 236 210 211 197 201 136 166 99 121 116 178 158 160 223 159 43 129 98 8 90 136 45 109 157 109 5 137 255
269 278 289 305 323 331 343 345 346 350 356 354 168 177 88 60 155 175 145 233 227 231 193 196 74 14 103 159 157 161 147 182 168 104 63 111 84 112 110 198 182 123 141 72 127 153 194
263 273 285 307 324 335 347 344 343 350 356 4 175 58 53 96 194 157 203 208 214 186 198 259 219 204 15 133 24 15 86 87 162 124 131 200 115 118 175 303 286 232 189 155 143 227 27
257 262 280 308 323 338 349 342 349 353 357 19 73 144 139 221 104 337 307 316 264 305 227 222 328 82 8 31 82 107 98 65 160 153 165 181 137 109 55 257 333 226 173 131 115 84 200
246 255 270 301 323 346 349 350 359 356 358 29 25 38 133 153 48 83 11 357 358 36 321 326 320 10 82 53 12 132 93 13 122 147 124 115 122 154 183 200 138 199 206 205 186 227 163
234 247 266 298 323 345 350 1 2 358 5 45 55 79 70 295 18 17 355 360 342 25 4 24 22 30 359 65 68 79 61 75 65 129 66 104 141 130 258 243 140 241 206 202 213 227 220
227 233 252 289 329 352 2 16 12 9 21 63 70 64 54 348 316 271 12 25 39 337 16 353 66 328 14 77 22 210 143 192 188 54 91 15 122 114 275 180 203 248 224 213 224 229 247
220 220 240 274 334 13 23 32 19 8 24 73 56 48 39 12 355 347 28 20 34 345 65 69 316 28 47 43 346 314 220 178 168 150 129 98 132 106 263 344 323 290 215 200 218 223 225
212 208 226 243 358 53 39 36 22 26 49 61 51 67 71 53 58 65 348 329 331 340 275 310 355 69 358 333 113 69 59 85 88 46 114 123 99 95 215 24 289 237 177 198 215 224 218
204 201 211 211 164 80 52 45 27 25 44 55 51 43 71 100 74 76 8 339 323 321 358 303 19 344 332 106 61 34 351 14 58 30 169 119 126 116 156 195 286 332 132 163 179 275 215
197 199 201 190 159 110 67 43 18 17 33 39 43 40 65 118 348 64 36 12 359 346 329 320 298 323 303 92 132 193 225 219 263 166 75 89 97 118 120 160 249 242 302 197 154 289 220
193 196 191 175 166 121 85 54 6 4 19 25 34 46 54 98 105 119 107 123 345 311 299 330 336 330 343 199 129 172 250 192 202 191 179 156 179 177 191 238 285 254 266 148 96 249 319
192 191 184 173 170 147 86 68 28 14 31 32 56 46 18 89 101 241 203 125 68 19 34 338 316 94 303 201 149 199 192 230 165 201 183 174 158 190 137 213 272 196 107 182 231 317 325
190 186 181 170 169 171 115 74 30 17 45 55 61 43 30 268 119 294 285 270 259 257 279 292 213 304 353 284 16 339 223 172 186 248 71 218 186 183 180 211 237 218 236 249 301 298 324
Height
1541 1538 1534 1531 1529 1525 1521 1517 1513 1508 1505 1503 1500 1498 1495 1491 1487 1483 1480 1477 1475 1473 1473 1473 1473 1474 1476 1478 1476 1475 1475 1476 1479 1483 1487 1489 1491 1494 1497 1496 1498 1501 1504 1506 1507 1514 1518
1540 1537 1533 1530 1528 1524 1520 1516 1512 1508 1505 1503 1499 1496 1493 1491 1487 1484 1481 1478 1476 1475 1474 1473 1473 1474 1476 1478 1476 1475 1476 1477 1479 1482 1485 1488 1491 1494 1497 1495 1498 1498 1500 1502 1510 1513 1520
1539 1536 1532 1529 1526 1522 1518 1515 1512 1508 1505 1500 1498 1493 1491 1489 1487 1484 1482 1480 1477 1476 1475 1474 1474 1474 1475 1477 1475 1475 1476 1478 1477 1480 1483 1486 1491 1494 1494 1496 1497 1499 1505 1510 1512 1517 1519
1537 1534 1531 1528 1524 1520 1517 1513 1510 1507 1503 1500 1496 1491 1489 1486 1485 1483 1482 1480 1479 1477 1476 1476 1475 1474 1474 1476 1475 1474 1476 1475 1476 1479 1481 1487 1490 1493 1494 1495 1497 1502 1506 1513 1514 1516 1524
1535 1533 1530 1527 1522 1519 1515 1512 1508 1504 1501 1498 1494 1491 1487 1485 1483 1483 1481 1480 1479 1478 1477 1477 1477 1475 1475 1476 1476 1475 1475 1475 1475 1478 1481 1486 1489 1493 1494 1496 1504 1502 1506 1509 1513 1509 1518
1533 1531 1528 1524 1521 1517 1514 1511 1506 1503 1500 1496 1491 1488 1485 1482 1482 1481 1479 1479 1479 1478 1478 1478 1477 1478 1476 1477 1476 1475 1475 1474 1476 1476 1482 1486 1487 1491 1493 1495 1492 1495 1507 1504 1506 1509 1514
1530 1528 1525 1522 1519 1515 1511 1509 1505 1500 1497 1493 1489 1485 1482 1479 1479 1478 1478 1479 1482 1481 1479 1479 1478 1476 1476 1475 1475 1475 1476 1476 1476 1474 1478 1484 1485 1481 1481 1489 1489 1497 1503 1508 1505 1508 1513
1528 1526 1523 1520 1516 1513 1509 1506 1502 1498 1494 1490 1486 1482 1478 1476 1475 1476 1477 1478 1477 1478 1478 1478 1477 1477 1476 1474 1475 1476 1476 1478 1479 1472 1482 1481 1483 1486 1487 1489 1490 1495 1504 1508 1504 1503 1509
1526 1524 1521 1518 1514 1510 1506 1503 1499 1495 1491 1486 1483 1479 1475 1473 1474 1475 1475 1476 1475 1476 1477 1477 1475 1475 1477 1475 1474 1475 1476 1479 1479 1479 1484 1477 1481 1483 1487 1491 1494 1497 1503 1505 1507 1508 1510
1524 1522 1519 1516 1512 1508 1504 1500 1496 1493 1488 1483 1479 1476 1474 1474 1476 1474 1475 1475 1476 1475 1479 1479 1476 1476 1477 1476 1476 1475 1476 1478 1478 1481 1483 1480 1483 1483 1488 1492 1494 1500 1497 1501 1506 1510 1519
1521 1519 1516 1513 1510 1506 1502 1497 1494 1490 1485 1481 1477 1474 1473 1472 1474 1475 1476 1474 1476 1476 1475 1478 1477 1476 1475 1477 1479 1477 1477 1476 1479 1485 1488 1480 1486 1486 1487 1491 1492 1498 1498 1501 1504 1511 1510
1519 1517 1514 1510 1507 1503 1500 1495 1491 1487 1483 1479 1475 1472 1472 1473 1474 1475 1475 1475 1475 1488 1487 1474 1474 1475 1476 1477 1478 1478 1477 1479 1480 1483 1486 1485 1486 1486 1488 1492 1492 1495 1501 1505 1512 1516 1524
1516 1514 1511 1508 1504 1500 1498 1493 1489 1484 1480 1476 1472 1470 1471 1472 1474 1475 1476 1478 1487 1483 1474 1474 1473 1473 1474 1476 1480 1480 1475 1474 1477 1482 1485 1485 1487 1489 1488 1495 1495 1497 1505 1527 1527 1531 1523
1514 1511 1509 1505 1502 1498 1495 1491 1487 1482 1478 1474 1470 1471 1471 1473 1473 1475 1478 1480 1484 1472 1472 1469 1468 1471 1470 1473 1476 1479 1479 1478 1480 1485 1482 1479 1485 1489 1491 1494 1498 1500 1503 1525 1520 1527 1520
1511 1509 1506 1503 1499 1495 1491 1488 1484 1480 1476 1472 1470 1471 1472 1472 1473 1474 1476 1490 1478 1476 1471 1467 1467 1467 1466 1465 1470 1475 1480 1480 1477 1475 1478 1482 1487 1492 1493 1494 1496 1504 1509 1510 1530 1537 1540
1508 1506 1504 1501 1497 1493 1489 1486 1482 1478 1474 1471 1470 1472 1471 1472 1472 1473 1478 1476 1477 1468 1468 1468 1468 1466 1469 1468 1468 1471 1472 1472 1473 1474 1473 1480 1486 1493 1494 1495 1499 1499 1504 1511 1533 1535 1528
1504 1503 1502 1499 1495 1491 1488 1484 1480 1476 1472 1470 1471 1472 1472 1471 1472 1473 1483 1478 1470 1467 1466 1467 1465 1462 1464 1467 1469 1469 1471 1472 1471 1473 1474 1478 1483 1497 1495 1497 1499 1502 1505 1509 1512 1519 1514
1500 1501 1499 1497 1493 1490 1486 1482 1478 1474 1471 1470 1470 1473 1471 1471 1473 1472 1473 1467 1467 1468 1467 1466 1465 1464 1463 1463 1464 1463 1465 1468 1469 1469 1477 1478 1487 1493 1493 1496 1496 1495 1498 1504 1519 1521 1534
1496 1498 1497 1495 1491 1488 1485 1481 1476 1473 1470 1468 1470 1471 1471 1471 1476 1473 1468 1468 1467 1467 1467 1466 1464 1462 1463 1465 1469 1469 1468 1468 1469 1472 1478 1479 1493 1499 1501 1499 1497 1495 1494 1498 1508 1517 1529
1493 1494 1494 1492 1490 1487 1484 1480 1476 1472 1469 1468 1471 1474 1471 1471 1471 1470 1471 1470 1468 1468 1468 1466 1465 1463 1462 1467 1469 1471 1470 1469 1469 1471 1471 1473 1486 1489 1498 1492 1490 1493 1489 1493 1504 1498 1505
1489 1491 1492 1490 1488 1485 1483 1479 1476 1472 1468 1468 1471 1476 1476 1477 1474 1473 1474 1472 1470 1469 1469 1468 1469 1468 1467 1466 1469 1473 1472 1472 1472 1472 1473 1476 1487 1490 1486 1485 1491 1488 1486 1486 1491 1488 1489
1486 1488 1489 1488 1485 1483 1481 1479 1477 1472 1469 1467 1473 1475 1476 1477 1475 1475 1473 1475 1473 1472 1472 1472 1471 1472 1467 1467 1470 1470 1472 1472 1471 1474 1476 1478 1490 1490 1490 1486 1490 1488 1487 1485 1484 1483 1481
1482 1485 1486 1486 1483 1482 1480 1479 1477 1474 1470 1469 1473 1474 1475 1478 1476 1475 1478 1477 1474 1473 1473 1473 1473 1471 1472 1471 1470 1469 1469 1470 1470 1473 1478 1481 1488 1494 1496 1489 1486 1486 1475 1477 1475 1472 1473
1480 1482 1484 1483 1482 1481 1480 1478 1478 1476 1472 1470 1472 1472 1473 1479 1477 1480 1480 1479 1476 1475 1476 1472 1472 1469 1471 1471 1471 1471 1471 1471 1471 1473 1474 1482 1487 1492 1500 1492 1500 1465 1463 1465 1466 1466 1467
1477 1479 1481 1480 1481 1480 1479 1478 1479 1478 1475 1472 1473 1474 1473 1478 1479 1480 1481 1481 1478 1477 1476 1474 1472 1474 1471 1469 1474 1477 1480 1475 1475 1476 1476 1477 1485 1493 1498 1507 1481 1459 1463 1465 1465 1460 1458
1473 1477 1478 1478 1479 1478 1479 1479 1479 1478 1477 1474 1474 1475 1475 1475 1480 1480 1481 1482 1483 1479 1478 1476 1474 1474 1473 1471 1472 1473 1484 1478 1479 1477 1477 1478 1480 1488 1498 1495 1483 1466 1460 1460 1461 1466 1455
1470 1474 1476 1477 1478 1478 1478 1479 1478 1478 1477 1475 1474 1475 1476 1475 1479 1480 1480 1481 1482 1482 1482 1482 1479 1475 1473 1474 1472 1475 1479 1477 1480 1479 1479 1480 1478 1481 1486 1496 1479 1462 1459 1460 1469 1465 1452
1466 1470 1473 1475 1476 1477 1478 1478 1477 1477 1476 1475 1475 1476 1478 1476 1477 1479 1479 1480 1482 1485 1487 1483 1479 1476 1475 1473 1473 1478 1482 1478 1477 1474 1476 1476 1481 1479 1486 1482 1487 1458 1459 1462 1458 1453 1451
1463 1467 1471 1473 1475 1476 1476 1477 1477 1476 1475 1475 1475 1476 1477 1478 1477 1479 1479 1479 1480 1482 1484 1481 1480 1482 1478 1475 1476 1474 1474 1475 1476 1474 1471 1475 1469 1472 1473 1469 1456 1455 1454 1453 1453 1452 1451